STARLINK-3140 (49460 NORAD) Tracking and Keplerian Element Data

This shows tracking and keplerian element data for the satellite.

Feedback or suggestion? Click here.




ElementValue
Catalog49460
NameSTARLINK-3140
Epoch Orbit370
Epoch Day15.91668981
Epoch Year2022
RAAN180.2216
Inclination53.2173
Eccentricity0.0001489
Argument of Perigee41.3905
Mean Anonmoly39.6944
Mean Motion15.53317072
Decay Rate-0.0065154
L11 49460U 21104BE 22015.91668981 -.00651540 00000+0 -11008-1 0 9992
L22 49460 53.2173 180.2216 0001489 41.3905 39.6944 15.53317072 3709

Live tracking and technical data element details for STARLINK-3140 (NORAD 49460). STARLINK-3140 can be tracked NOW for your location showing map with azimuth and elevation plus other details from your city location.

Track the satellite on the map from your city or location and see movement details for azimuth, elevation, latitude, longitude, range, height, and movement on the map or in text.







IsCatalogInMostPopularTable: catalog: 49460, numindb: 55
Update: records affected: 1



GetName: 49460 STARLINK-3140

Hit Count: updated at: Thu, 20 Jan 2022 17:27:25 GMT